This is the latest recevied weather packets stored in our database for station/object IV3CGM-13. If no packets are shown the sender has not sent any weather packets the latest 1 day(s).
| Time | Temp. | Humidity | Pressure | Rain* | Wind** | Luminosity | Snow |
|---|---|---|---|---|---|---|---|
| 1778017417 | 11.67° C | 99% | 1012.9 hPa | 3.56 mm | 0.89 m/s, 126° | 0 W/m² | - |
| 1778016729 | 11.67° C | 99% | 1013.1 hPa | 4.06 mm | 0 m/s | 0 W/m² | - |
| 1778016041 | 11.67° C | 99% | 1013.2 hPa | 4.83 mm | 0 m/s | 0 W/m² | - |
| 1778015305 | 11.67° C | 99% | 1013.4 hPa | 5.08 mm | 0 m/s | 0 W/m² | - |
| 1778014604 | 11.67° C | 99% | 1013.4 hPa | 4.83 mm | 0 m/s | 0 W/m² | - |
| 1778013916 | 11.67° C | 99% | 1013.4 hPa | 3.3 mm | 0 m/s | 0 W/m² | - |
| 1778013229 | 11.67° C | 99% | 1013.3 hPa | 3.3 mm | 0 m/s | 0 W/m² | - |
| 1778012541 | 11.67° C | 99% | 1013.1 hPa | 2.79 mm | 0.89 m/s, 126° | 0 W/m² | - |
| 1778011805 | 11.67° C | 99% | 1013.2 hPa | 2.79 mm | 0 m/s | 0 W/m² | - |
| 1778011104 | 11.67° C | 99% | 1013.2 hPa | 2.03 mm | 0.89 m/s, 126° | 0 W/m² | - |
| 1778010416 | 11.67° C | 99% | 1013.1 hPa | 1.52 mm | 0 m/s | 0 W/m² | - |
| 1778009728 | 11.67° C | 99% | 1013.2 hPa | 1.27 mm | 0 m/s | 0 W/m² | - |
| 1778009041 | 11.67° C | 99% | 1013.1 hPa | 1.27 mm | 0.89 m/s, 126° | 0 W/m² | - |
| 1778008304 | 11.67° C | 99% | 1013.1 hPa | 0.76 mm | 0 m/s | 0 W/m² | - |
| 1778007603 | 11.67° C | 99% | 1013.2 hPa | 0.76 mm | 0 m/s | 0 W/m² | - |
| 1778006916 | 11.67° C | 99% | 1013.1 hPa | 0.51 mm | 0 m/s | 0 W/m² | - |
| 1778006230 | 11.67° C | 99% | 1012.9 hPa | 0.51 mm | 0 m/s | 0 W/m² | - |
| 1778005541 | 11.67° C | 99% | 1012.8 hPa | 0.51 mm | 0 m/s | 1 W/m² | - |
| 1778004804 | 11.67° C | 99% | 1012.9 hPa | 0.51 mm | 0.89 m/s, 168° | 1 W/m² | - |
| 1778004103 | 11.67° C | 99% | 1012.8 hPa | 0.76 mm | 0.89 m/s, 168° | 3 W/m² | - |
| 1778003415 | 12.22° C | 99% | 1012.9 hPa | 0.76 mm | 0 m/s | 6 W/m² | - |
| 1778002729 | 12.22° C | 98% | 1012.8 hPa | 0.76 mm | 0 m/s | 10 W/m² | - |
| 1778002041 | 12.22° C | 99% | 1013 hPa | 0.76 mm | 0 m/s | 17 W/m² | - |
| 1778001304 | 11.67° C | 99% | 1013.1 hPa | 0.76 mm | 0.89 m/s, 204° | 22 W/m² | - |
| 1778000603 | 12.22° C | 98% | 1013.1 hPa | 0.51 mm | 0.89 m/s, 204° | 34 W/m² | - |
* Rain latest hour (hover to see other rain measurements)
** Current wind speed in m/s (hover to see current wind gust speed)